INTELSAT 33E DEB, 62005

Orbit data source: Space-Track

INTELSAT 33E DEB, 62005 is space debris in GEO originally from a launch on Wed, 24 Aug 2016 UTC launched from the French Guiana (FRGUI). Debris objects in space refer to the collection of defunct objects orbiting the Earth. Examples of debris include non-operational satellites, rocket bodies, and fragments generated from explosions, collisions, or faulty payload assembly.

Not visible in the next 10 days
Identifier
62005, 2016-053X
Orbit
GEO
Country
Flag of UnknownUnknown / ITSO
Related business
Manufacturer
Boeing/ES
Mission
Spacecraft
Bus & Motor
Unknown
Mass
Unknown
Launch date (UTC)
2016-08-24 (9 years ago)
Launch vehicle
Unknown
Launch site
French Guiana (FRGUI)
Object type
Payload
Rocket body
Debris
Shape & HBR
Unknown shape, 1.1 m
Radar Cross Section
RCS unknown

Expand to show TLE details & history
Last TLE update: 1 day ago

TLE from 1 day ago
0 INTELSAT 33E DEB
1 62005U 16053X   25295.21061049 -.00000064  00000-0  00000-0 0  9995
2 62005   1.1578 106.5433 0284010 228.4843 130.0509  1.04571923  3828
Epoch: 2025-10-22T05:03Z
TLE epoch observation values (Epoch: 2025-10-22T05:03:16.746Z)
Latitude
-0.00001°
Longitude
0.78271°
Altitude
35,383.939 km
Speed
3.061 km/s
True Right ascension
07h 09m 57s
True Declination
0° 00' 00"
Sunlit
Object was in daylight at epoch
Visualization orbit readout
Latitude
Unknown
Longitude
Unknown
Altitude
Unknown
Speed
Unknown
Apparent Right ascension
Unknown
Apparent Declination
Unknown
Sunlit
N/A
Visualization observer readout
Local Sidereal Time
10:16:28
Azimuth
Unknown
Elevation
Unknown
Doppler factor
Unknown
Orbital elements
Apogee altitude
35,788.204 km
Perigee altitude
33,459.217 km
Semi-major axis
41,001.848 km
Eccentricity
0.0284
Inclination
1.1578°
RAAN
106.5433°
Arg. of periapsis
228.4843°
True anomaly
132.48573°
Mean anomaly
130.0509°
Eccentric anomaly
131.27389°
Mean motion
0.26142 °/min
Orbital period
1,377.1 mins
BSTAR
0
Loading maneuver chart data...
Computing Atmospheric mass density...
Loading historical data...
Loading historical data...
Loading historical data...
Loading historical data...
Loading historical data...
Loading historical data...
Loading historical data...

Documentation

Showing up to 5 results
|